User: anonymous   Login
Location: Hancock Field Station
(44.9202°N, 120.4259°W)
Time: 08:21:35
(UTC-07:00)
Language:

Nadezhda 4 Rocket - Orbit

View from above orbital plane
View from above orbital plane
View from above satellite
View from above satellite

Ground track
Ground track

The orbit data is extracted from the following two-line orbital elements,

1 23180U 94041B   16270.16409796 -.00000011  00000-0 -26387-4 0  9994
2 23180  82.9441 127.5112 0027757 244.0809 234.1331 13.77927677116548
Epoch (UTC): 26 September 2016 03:56:18
Eccentricity: 0.0027757
inclination: 82.9441°
perigee height: 951 km
apogee height: 991 km
right ascension of ascending node: 127.5112°
argument of perigee: 244.0809°
revolutions per day: 13.77927677
mean anomaly at epoch: 234.1331°
orbit number at epoch: 11654

The dashed part of the orbit path shows where the satellite is in the earth's shadow,  

DLR